Other Public Products
Issued by NWS Grand Forks, ND

Home | Current Version | Previous Version | Graphics & Text | Print | Product List | Glossary On
Versions: 1 2 3 4 5 6 7 8 9 10 11 12 13 14 15 16 17 18 19 20 21 22 23 24 25 26 27 28 29 30 31 32 33 34 35 36 37 38 39 40 41 42 43 44 45 46 47 48 49 50
000
FPUS83 KFGF 280210
OPUFGF
PRAIRIE TO PINES WEATHER ROUNDUP
NATIONAL WEATHER SERVICE EASTERN NORTH DAKOTA/GRAND FORKS ND
900 PM CDT FRI MAY 27 2016

 **SATELLITE DATA USED TO AUGMENT SKY COVER AT AUTOMATED STATIONS**
 *****  WEATHER ACROSS EASTERN NORTH DAKOTA  *****

CITY           SKY/WX    TMP DP  RH WIND       PRES   REMARKS
GRAND FORKS    CLOUDY    71  57  61 NE7       29.76S
GRAND FORKS AF CLOUDY    69  53  57 NE2       29.78R
GRAND CITY NWS   N/A     68 N/A N/A SE9         N/A
BUXTON           N/A     63  61  92 E2          N/A
DEVILS LAKE    PTCLDY    63  56  78 N10       29.82R
FARGO          CLOUDY    63  59  87 NW5       29.77S
WAHPETON ARPT  MOCLDY    63  55  77 NE6       29.76S
$$

 *****  WEATHER ACROSS CENTRAL AND WESTERN NORTH DAKOTA  *****

CITY           SKY/WX    TMP DP  RH WIND       PRES   REMARKS
JAMESTOWN      CLOUDY    66  54  65 NE3       29.77S
BISMARCK       MOCLDY    65  51  60 E6        29.80R
MINOT          PTCLDY    62  55  77 NE10      29.82R
MINOT AFB      CLOUDY    61  56  83 NE10      29.82R
GARRISON         N/A     65  49  56 CALM      29.81R
WILLISTON      CLOUDY    61  52  72 E8        29.84S
DICKINSON      PTCLDY    61  44  53 E5        29.80R
HETTINGER      CLEAR     63  46  54 CALM      29.83R
$$

 *****  OTHER OBSERVATIONS NORTHEAST NORTH DAKOTA  *****

CITY           SKY/WX    TMP DP  RH WIND       PRES   REMARKS
WALHALLA       FAIR      61  61 100 N18G26    29.83R
LANGDON        CLOUDY    61  59  94 NE14G22   29.83S
CAVALIER       FAIR      64  59  82 N13       29.80R
GRAFTON        FAIR      68  57  68 CALM      29.79S
CANDO          NOT AVBL
FORT TOTTEN      N/A     63  55  75 NE2       29.95S
ROLLA          CLOUDY    54  54 100 NE16      29.87S
RUGBY          FAIR      57  55  94 NE18      29.83R
 ***** THE ABOVE OBSERVATIONS ARE NON NWS ARE NOT QUALITY
        CONTROLLED AND MAY MIS-REPORT RAIN FOR SNOW...
$$

 *****  OTHER OBSERVATIONS SOUTHEAST NORTH DAKOTA *****

CITY           SKY/WX    TMP DP  RH WIND       PRES   REMARKS
COOPERSTOWN    NOT AVBL
VALLEY CITY    FAIR      63  63 100 S6        29.80S
OAKES            N/A    N/A N/A N/A MISG        N/A
GWINNER        FAIR      61  61 100 N10       29.77S
SHEYENNE NWR     N/A     60  59  96 NW7       29.95S
BUFFALO          N/A     63  57  82 SW9         N/A
WYNDMERE         N/A     61  57  88 NW3         N/A
 ***** THE ABOVE OBSERVATIONS ARE NON NWS ARE NOT QUALITY
       CONTROLLED AND MAY MIS-REPORT RAIN FOR SNOW...
$$

  *****  WEATHER ACROSS NORTHERN MINNESOTA  *****

CITY           SKY/WX    TMP DP  RH WIND       PRES   REMARKS
FLAG ISLAND    LGT RAIN  63  59  88 CALM      29.83S
WARROAD        MOCLDY    61  55  82 E5        29.84R
ROSEAU         MOCLDY    63  57  82 SE6       29.83R
HALLOCK        PTCLDY    66  55  68 SE7       29.79R
THF RVR FALLS  CLOUDY    64  55  72 SE8       29.82R
HALSTAD        NOT AVBL
FOSSTON        CLOUDY    63  55  77 SE6       29.83R
BAUDETTE       PTCLDY    63  53  70 SE5       29.85R
WASKISH        PTCLDY    63  55  77 E3        29.84S
CROOKSTON      CLOUDY    63  61  94 SE10      29.79R
$$
  *****  WEATHER ACROSS CENTRAL AND WEST MINNESOTA  *****

CITY           SKY/WX    TMP DP  RH WIND       PRES   REMARKS
BEMIDJI        CLOUDY    61  56  84 E7        29.82S
PARK RAPIDS    CLOUDY    63  55  75 E7        29.80F
WADENA         MOCLDY    59  55  88 E5        29.79F
DETROIT LAKES  MOCLDY    63  54  72 SE12      29.81S
MOORHEAD       CLOUDY    63  61  94 N6        29.78S
FERGUS FALLS   CLOUDY    64  57  77 E9        29.74S
ELBOW LAKE     FAIR      61  58  89 SE9       29.77S
MORRIS MN      CLOUDY    64  61  88 E9        29.75S
STAPLES        CLOUDY    59  55  88 E5        29.79F
WHEATON        MOCLDY    64  59  82 NW7       29.77F
$$
  *****  WEATHER ELSEWHERE ACROSS MINNESOTA  *****

CITY           SKY/WX    TMP DP  RH WIND       PRES   REMARKS
DULUTH         CLOUDY    52  50  93 E9        29.81F
INTRNTL FALLS  CLOUDY    63  53  70 NE3       29.85R
ELY            LGT RAIN  57  54  88 E5        29.83F
CLOQUET        CLOUDY    52  50  93 E12       29.81S
BRAINERD       CLOUDY    60  57  89 NE8       29.80S
HIBBING        RAIN      59  55  87 NE7       29.82R FOG
ALEXANDRIA     CLOUDY    60  57  89 NE9       29.78F
SAINT CLOUD    CLOUDY    59  58  96 NE8       29.74F
MINNEAPOLIS    MOCLDY    64  60  87 NW6       29.74S
$$

  *****  WEATHER ACROSS SOUTH DAKOTA  *****

CITY           SKY/WX    TMP DP  RH WIND       PRES   REMARKS
SIOUX FALLS    MOCLDY    66  57  72 NE7       29.72S
BROOKINGS      CLOUDY    67  57  70 N6        29.75R
WATERTOWN      CLEAR     61  55  81 N7        29.77R
HURON          CLEAR     63  59  87 N8        29.74R
SISSETON         N/A     63  58  83 N10       29.75S
ABERDEEN       CLOUDY    64  59  83 N7        29.75S
MITCHELL       PTCLDY    68  59  73 N5        29.73S
PIERRE         CLEAR     60  53  77 NW9       29.75S
MOBRIDGE       MOCLDY    66  53  63 CALM      29.76S
RAPID CITY     CLOUDY    59  49  69 S7        29.84R
$$

  *****  SOME WEATHER IN NEARBY STATES *****

CITY           SKY/WX    TMP DP  RH WIND       PRES   REMARKS
GLASGOW MT     PTCLDY    63  49  60 E17       29.81R
GREAT FALLS MT CLOUDY    57  36  45 NW5       29.89R
CHEYENNE WY    CLOUDY    50  41  71 SW3       29.95R
SCOTTSBLUFF NE PTCLDY    57  47  69 NW3       29.86S
OMAHA NE       CLOUDY    73  63  70 E7        29.69S
DES MOINES IA  LGT RAIN  73  61  65 E5        29.70S
DAVENPORT IA   MOCLDY    74  67  78 S17       29.76R
CHICAGO IL     LGT RAIN  75  65  70 S25G38    29.85R
EAU CLAIRE WI  CLOUDY    65  64  97 W5        29.73S
LA CROSSE WI   MOCLDY    69  67  93 CALM      29.72R
$$

  *****  SOME NATIONAL WEATHER *****

CITY           SKY/WX    TMP DP  RH WIND       PRES   REMARKS
LA GUARDIA NY  MOCLDY    74  66  76 S12       30.04R
RALEIGH NC     PTCLDY    76  57  51 S8        30.12R
ATLANTA GA     PTCLDY    77  60  55 SE5       30.07R
NEW ORLEANS LA CLOUDY    79  69  71 SE10      29.93S
OKLAHOMA CITY  CLOUDY    65  57  75 S12       29.71R
ALBUQUERQUE NM MOCLDY    70  26  19 S9G21     29.91R
SALT LAKE CITY MOCLDY    68  39  34 N12       29.89R
LOS ANGELES CA PTSUNNY   61  55  81 SW13      29.86R
BOISE ID       SUNNY     66  23  19 N14       29.92R
SEATTLE WA     PTSUNNY   59  41  51 SW13      30.12S
$$

*** WEATHER ACROSS MANITOBA...SASKATCHEWAN AND ONTARIO ***
                ***ONTARIO***

CITY           SKY/WX    TMP DP  RH WIND       PRES   REMARKS
GERALDTON      CLOUDY    64  55  72 VRB2      29.92S
THUNDER BAY    LGT RAIN  48  46  93 NE5       29.90F
SIOUX LOOKOUT  CLOUDY    63  55  77 N5        29.90R
TORONTO        MOCLDY    79  63  57 W12       29.98R
BIG TROUT LK   CLOUDY    41  37  87 NE10G21   30.14R
PICKLE LAKE    CLOUDY    52  50  93 NE12G22   29.96S
DRYDEN         MOCLDY    61  59  94 NE3       29.89R
KENORA         MOCLDY    61  59  94 E5        29.87S
$$
                *** MANITOBA***

CITY           SKY/WX    TMP DP  RH WIND       PRES   REMARKS
BRANDON        CLOUDY    55  50  82 NE15G21   29.90R
DAUPHIN        CLOUDY    50  45  81 N14G22    29.97R
ISLAND LAKE    CLOUDY    45  37  76 NE12G20   30.12F
PILOT MOUND      N/A     55  54  94 N13G18      N/A
THE PAS        PTCLDY    52  39  62 E7        30.06S
THOMPSON       CLOUDY    43  34  70 NE9       30.18S
WINNIPEG       PTCLDY    59  55  88 NE17      29.85R
LYNN LAKE      CLEAR     48  34  57 E14       30.11F
CHURCHILL      CLOUDY    30  27  86 E6        30.35F WCI  24
GILLAM         CLOUDY    37  32  81 NE6       30.25S
$$
                ***SASKATCHEWAN***

CITY           SKY/WX    TMP DP  RH WIND       PRES   REMARKS
ESTEVAN        MOCLDY    57  55  94 E8        29.86S
KINDERSLEY     LGT RAIN  59  52  77 NW6       29.82R
LLOYDMINSTER   LGT RAIN  57  52  82 SE18G24   29.83S
PRINCE ALBERT  MOCLDY    59  46  63 E12G20    29.92S
REGINA         MOCLDY    63  50  63 E9G20     29.88R
YORKTON        CLEAR     55  48  76 NE10      29.93R   C1F1C2F2C3F3C4F4C5F5C6F6C7F7C8F8C9F9CaFaCbFbCcFcCdFdCe!


USA.gov is the U.S. government's official web portal to all federal, state and local government web resources and services.